Showing default

SIGI, 62632

Orbit data source: Space-Track

SIGI, 62632 is a German payload satellite in SSO that was launched on Tue, 14 Jan 2025 UTC via an FALCON 9 launch vehicle from the Air Force Western Test Range (AFWTR). Payload-class satellites include a variety of spacecraft equipped with specific instruments for various scientific and technological missions. These include communications satellites like Starlink; space stations such as the ISS; scientific satellites like the Hubble; Earth observation satellites from companies like Planet Labs, Umbra, and HawkEye 360; GPS; miniature CubeSats for education and research; and military/defense satellites.

Loading next visibility...
Identifier
62632, 2025-009Z
Orbit
SSO
Country
Flag of DEDE / GER
Related business
Manufacturer
REFLEX
Mission
Operational Commercial Communications
Bus & Motor
OMNIFLEX, Unknown motor
Mass
109 kg wet, 109 kg dry
Launch date (UTC)
2025-01-14 (1 year ago)
Launch vehicle
FALCON 9
Launch site
Air Force Western Test Range (AFWTR)
Object type
Payload
Rocket body
Debris
Shape & HBR
Box + 2 Pan, 1.0 m
Radar Cross Section
1.176 m², Medium (>0.1 m² and < 1m²)

Expand to show TLE details & history
Last TLE update: 9 hours ago

TLE from 9 hours ago
0 SIGI
1 62632U 25009Z   26171.47683897  .00004643  00000-0  19093-3 0  9996
2 62632  97.4002 251.6305 0001804 318.3210  41.7890 15.24649713 79306
Epoch: 2026-06-20T11:26Z
TLE epoch observation values (Epoch: 2026-06-20T11:26:38.887Z)
Latitude
0.00001°
Longitude
171.27756°
Altitude
494.01 km
Speed
7.618 km/s
True Right ascension
16h 46m 31s
True Declination
0° 00' 00"
Sunlit
Object was in full shadow at epoch
Visualization orbit readout
Latitude
Unknown
Longitude
Unknown
Altitude
Unknown
Speed
Unknown
Apparent Right ascension
Unknown
Apparent Declination
Unknown
Sunlit
N/A
Visualization observer readout
Local Sidereal Time
07:21:45
Azimuth
Unknown
Elevation
Unknown
Doppler factor
Unknown
Orbital elements
Apogee altitude
490.036 km
Perigee altitude
487.558 km
Semi-major axis
6,866.934 km
Eccentricity
0.00018
Inclination
97.4002°
RAAN
251.6305°
Arg. of periapsis
318.321°
True anomaly
41.80278°
Mean anomaly
41.789°
Eccentric anomaly
41.79589°
Mean motion
3.81416 °/min
Orbital period
94.39 mins
BSTAR
0.00019093
Loading maneuver chart data...
Computing Atmospheric mass density...
Loading historical data...
Loading historical data...
Loading historical data...
Loading historical data...
Loading historical data...
Loading historical data...
Loading historical data...

Documentation

Showing up to 5 results
|